Theta_e
350 350 350 350 350 350 350 351 352 353 354 355 354 354 354 355 356 356 356 356 356 357 357 356 356 356 355 355 354 353 354 354 354 353 353 353 353 353 352 351 350 349 350 350 351 351 351 351 352 352 352 352 352 351 350 351 351 351 351 350 351 351 350
350 350 350 349 350 350 350 351 352 353 352 354 354 354 354 355 356 357 357 357 357 357 357 357 356 356 356 356 355 355 354 354 354 353 353 353 352 352 352 350 350 349 348 349 349 349 350 351 352 351 352 352 352 351 350 350 350 351 351 350 352 353 352
349 350 349 349 350 350 350 350 352 352 352 353 353 353 354 355 356 357 357 357 357 357 357 357 357 357 356 356 356 355 355 355 354 353 353 353 352 352 352 351 350 350 349 348 349 349 350 351 351 351 351 351 352 351 350 351 350 351 351 350 352 354 352
349 350 350 350 350 351 350 350 351 351 351 352 352 353 354 355 356 356 357 357 357 358 358 357 357 357 357 357 357 356 355 355 354 354 353 353 353 353 354 352 351 351 351 349 349 350 351 352 352 352 351 351 352 351 350 350 350 351 351 351 353 355 355
349 349 350 350 350 350 350 350 351 351 350 351 352 352 354 355 355 355 356 356 356 357 358 357 357 357 357 357 357 357 356 355 355 354 354 354 354 354 353 352 352 352 351 350 350 351 351 352 352 352 351 351 352 352 351 350 350 351 351 351 354 357 358
348 349 350 351 349 350 349 349 350 351 350 350 351 352 353 354 354 355 355 356 356 357 357 357 357 357 357 357 357 357 357 356 355 355 355 355 354 354 353 353 352 352 352 352 351 351 351 351 352 352 351 352 353 353 352 351 350 351 352 353 356 358 359
347 349 350 350 349 349 349 349 350 350 350 350 350 351 352 352 353 354 354 355 356 356 357 357 357 357 357 357 357 358 357 357 356 355 355 355 355 354 353 353 353 352 353 352 351 351 351 351 351 351 351 352 353 352 351 351 350 351 353 353 355 357 358
347 349 349 349 349 348 348 349 350 350 350 350 350 351 351 352 353 353 354 355 355 356 356 356 357 357 358 357 357 357 356 356 356 356 356 356 355 355 354 354 353 352 353 352 351 351 351 351 351 350 351 351 352 351 350 350 349 350 352 352 353 356 358
346 350 349 347 347 347 348 349 350 351 351 350 350 351 351 351 352 353 354 355 355 356 356 356 356 357 357 357 357 357 357 356 357 356 356 356 356 355 355 355 354 353 352 352 352 352 351 351 351 351 350 350 350 350 349 349 349 350 351 351 351 354 356
346 349 350 348 347 347 348 349 351 352 352 351 351 351 351 351 352 353 354 354 354 355 355 355 356 357 357 357 356 357 357 357 357 356 356 356 356 356 355 355 355 354 352 352 353 353 351 351 351 351 350 350 349 350 349 349 349 349 350 350 351 352 354
346 351 352 349 348 349 348 350 353 354 354 353 352 351 351 352 352 352 353 354 354 355 355 355 356 356 357 357 356 357 357 357 357 356 356 356 355 356 355 354 355 354 353 353 354 354 353 352 351 351 350 350 350 349 350 350 350 350 350 351 351 351 353
342 350 353 352 350 350 351 353 355 356 356 354 352 351 352 352 352 353 353 354 354 354 355 355 356 356 357 356 356 357 357 357 357 356 356 356 355 356 355 354 355 355 354 354 354 354 354 353 352 352 350 350 350 350 350 350 350 350 350 352 352 352 352
343 345 350 352 351 352 355 358 358 357 357 354 351 351 352 352 352 352 353 354 353 354 355 355 356 356 356 356 356 357 357 356 356 356 356 356 355 355 355 355 354 354 354 354 354 354 355 354 354 352 351 350 350 350 350 350 351 351 350 351 352 352 352
342 342 346 349 351 354 356 358 359 358 356 354 352 351 351 352 351 352 354 354 353 354 355 355 356 356 356 356 357 357 357 357 356 356 356 356 355 355 355 355 354 355 354 354 355 355 355 355 355 354 352 351 350 351 351 351 351 351 351 351 352 353 353
335 337 342 346 350 355 357 356 358 358 356 354 353 352 352 352 352 353 353 353 354 354 355 356 356 356 356 356 357 357 357 356 356 356 355 356 355 355 355 355 355 355 354 354 354 354 355 355 355 355 354 353 353 353 353 353 352 351 352 352 352 353 355
328 330 334 342 348 352 354 355 357 358 357 356 354 352 352 352 353 353 353 353 354 354 355 356 355 355 356 356 357 357 356 355 355 356 356 355 355 355 355 355 355 355 355 354 354 354 355 355 355 356 355 355 355 355 355 355 353 352 351 351 351 353 355
334 329 329 335 343 349 352 354 356 358 358 357 355 353 353 353 353 352 352 353 354 354 355 355 355 356 356 357 357 356 355 355 355 356 355 355 355 355 354 355 355 355 355 355 354 354 355 355 355 355 355 356 356 356 356 355 353 351 350 350 350 352 355
349 340 333 332 337 345 351 351 354 357 355 354 354 354 353 353 353 352 352 353 353 354 355 354 355 356 356 357 357 356 355 355 356 356 355 355 355 354 354 354 355 355 355 355 355 355 355 355 355 355 355 355 356 356 356 355 353 351 351 350 349 350 353
357 351 342 336 335 339 345 348 350 354 354 353 353 353 352 352 353 353 353 354 354 354 354 354 355 356 356 357 357 356 356 356 356 356 356 355 355 354 354 354 355 356 355 355 355 355 355 355 355 356 356 356 356 356 356 355 354 351 350 350 350 350 351
358 355 349 341 336 336 342 349 351 353 355 355 353 352 352 352 353 354 354 355 355 355 355 355 355 356 357 357 357 356 356 356 356 356 356 355 355 355 355 355 355 355 355 355 356 356 355 355 356 356 356 356 356 356 356 356 355 353 351 350 350 350 351
357 358 353 345 339 342 346 352 353 354 355 354 352 353 353 352 353 355 354 355 355 355 356 356 357 357 357 357 357 357 357 356 356 357 357 356 355 355 356 356 356 356 355 355 356 356 356 355 355 356 356 356 356 357 357 356 355 353 353 351 351 351 352
356 357 357 351 345 348 352 352 351 353 354 353 352 353 353 353 353 354 355 355 355 355 356 357 358 358 357 357 357 357 357 357 357 358 357 357 356 356 356 357 356 356 356 356 356 356 356 355 356 356 356 356 356 356 356 356 355 354 353 352 352 352 353
355 356 357 353 347 351 355 353 352 354 355 354 353 352 352 353 354 355 356 355 355 356 357 357 358 358 357 357 358 357 358 358 358 358 358 358 358 357 357 357 357 357 356 356 357 356 357 357 356 356 356 356 356 356 356 356 355 353 353 352 352 353 353
355 356 356 351 347 351 354 353 354 355 355 354 353 353 354 354 356 357 358 356 357 358 358 358 358 358 358 358 358 358 358 358 358 358 358 359 359 358 358 358 358 358 357 357 357 357 357 357 357 357 357 356 356 356 356 356 355 354 353 352 352 352 353
355 356 357 353 348 350 354 355 355 354 355 355 354 354 354 355 357 358 358 357 357 357 358 358 359 359 359 359 359 359 358 358 358 359 358 359 359 358 359 359 358 358 358 358 358 357 358 358 357 358 358 357 357 356 355 356 356 354 354 353 352 352 351
355 356 358 356 353 352 355 357 357 354 354 355 355 354 354 355 357 358 358 357 357 357 358 359 360 360 360 360 359 359 358 358 359 359 359 360 359 359 359 359 359 359 359 359 359 358 359 359 358 359 359 358 358 357 356 356 356 355 355 354 353 352 351
354 356 358 360 359 358 356 356 356 354 354 355 355 354 354 356 359 360 360 360 358 359 359 360 361 360 360 360 360 359 360 360 360 359 360 360 360 359 360 360 360 360 360 359 359 359 360 360 359 359 359 359 359 358 358 357 357 356 356 354 353 353 352
351 354 356 359 361 361 359 358 356 354 354 354 354 355 355 356 359 361 361 361 360 360 361 360 360 359 359 360 361 361 361 361 360 361 360 360 361 361 361 361 360 361 360 360 360 360 360 360 360 360 360 360 359 359 359 358 357 356 356 355 354 354 353
346 350 353 355 357 359 361 362 361 359 357 355 354 356 355 356 360 361 361 361 361 360 360 359 358 359 360 361 362 362 362 362 362 361 361 362 362 362 361 362 361 361 362 361 361 361 361 361 360 360 360 360 360 360 359 358 358 357 356 355 355 354 354
342 346 350 353 355 357 359 361 363 363 362 360 359 358 356 357 361 362 361 361 360 358 358 358 357 359 361 362 363 363 363 363 363 362 362 362 363 362 362 363 362 362 362 362 362 362 361 361 361 360 360 360 360 360 360 359 359 358 356 355 355 354 354
339 342 347 350 353 355 357 359 361 362 363 364 364 362 360 360 362 363 363 361 358 356 357 357 357 359 361 362 363 364 364 364 364 363 363 364 363 363 363 363 363 364 363 362 362 362 361 361 361 361 361 361 361 361 361 360 360 359 358 356 355 355 354
337 339 344 348 350 353 355 357 358 360 361 362 363 364 365 364 364 365 364 361 356 355 356 357 358 360 361 363 364 364 364 365 365 365 365 365 364 364 364 364 364 365 364 364 363 362 362 362 362 362 362 362 362 363 362 362 361 360 359 358 356 355 355
336 337 341 345 348 351 354 355 357 358 358 359 360 362 364 365 365 365 364 361 359 357 356 357 358 359 360 363 364 364 365 365 365 366 367 366 366 366 365 365 365 366 365 365 364 363 363 363 362 363 363 362 362 363 363 363 363 362 360 359 356 355 355
334 335 339 342 345 349 352 353 355 355 356 356 357 358 360 361 363 364 365 366 364 362 360 358 358 359 360 361 363 364 365 365 365 366 367 367 367 367 367 366 366 367 366 366 365 365 364 364 364 363 363 363 363 364 364 364 363 362 362 360 358 357 355
332 334 337 340 342 345 349 351 353 354 354 354 355 356 357 357 358 360 363 366 368 367 365 362 361 361 361 362 362 363 363 364 365 366 367 368 368 366 366 367 367 367 367 367 366 365 365 365 365 365 364 364 364 364 365 365 364 363 362 361 359 358 357
332 333 336 338 340 342 345 348 350 353 354 353 354 355 355 355 355 356 358 361 366 369 368 365 364 364 364 364 364 363 362 362 364 366 367 368 366 364 362 362 364 365 366 366 366 365 364 364 365 364 364 364 364 364 364 364 364 363 362 361 360 359 357
331 332 333 335 337 339 341 344 347 350 352 352 353 354 355 354 354 354 355 357 360 365 368 368 369 369 368 367 366 364 364 364 365 366 367 365 362 361 358 357 358 360 362 364 364 363 363 363 363 363 363 364 364 364 363 362 363 362 361 361 360 359 358
331 330 332 333 335 336 338 340 342 345 349 352 352 352 353 354 353 353 355 356 357 361 364 368 371 372 370 369 366 364 365 366 366 365 364 361 359 357 356 355 355 355 356 359 362 362 362 362 362 362 362 362 363 363 362 362 362 361 361 360 360 359 358
Wind_Speed
16 17 17 16 16 18 18 19 22 26 28 29 31 33 34 33 32 31 30 32 33 32 33 34 34 34 34 34 35 36 35 32 30 30 28 28 27 26 28 30 29 30 29 28 29 29 29 28 26 26 25 23 22 21 20 19 18 18 16 15 14 14 15
15 16 17 17 17 19 19 20 23 25 27 29 31 33 34 34 33 32 31 32 35 34 33 35 35 35 35 35 34 34 34 32 30 31 28 27 29 29 30 31 31 31 31 30 29 29 29 28 27 26 26 25 23 22 21 20 19 19 17 16 14 12 13
15 16 17 18 18 19 19 20 24 27 28 29 31 33 34 34 34 35 33 33 35 33 33 35 36 35 35 35 33 33 35 33 31 32 29 28 31 30 28 30 32 31 31 31 30 29 28 28 27 26 26 26 24 23 23 21 20 20 19 17 15 13 14
15 17 18 20 20 19 19 19 23 28 30 31 33 34 34 34 34 35 34 35 36 35 34 35 36 35 35 35 34 33 35 34 32 32 30 28 29 27 26 29 31 30 30 31 30 29 28 27 27 27 26 26 25 24 24 22 22 21 20 19 16 13 13
16 16 16 18 18 17 17 18 22 28 31 32 33 33 33 34 35 35 35 35 36 36 36 36 35 34 35 35 34 32 34 35 33 32 30 27 26 27 28 29 29 30 30 31 30 29 29 27 27 27 27 27 26 26 25 24 23 22 22 20 16 12 12
14 15 15 16 16 17 19 20 24 31 34 34 34 33 32 34 35 35 35 34 35 35 34 35 35 34 35 35 32 31 33 35 35 34 32 29 28 30 31 30 30 30 29 30 31 29 28 28 27 27 27 27 26 26 26 26 25 23 22 20 15 12 12
14 14 15 16 16 18 20 21 25 31 33 33 32 31 32 34 34 35 35 35 35 35 34 35 34 33 35 34 32 32 34 35 35 35 32 29 29 30 30 30 31 30 28 29 31 30 29 28 28 28 27 26 26 26 26 26 26 25 22 20 16 13 12
15 14 15 17 17 19 19 19 22 27 29 30 30 31 34 35 34 35 36 35 36 35 35 36 35 33 34 33 32 34 35 34 34 34 32 28 28 29 29 29 31 31 29 29 30 30 30 29 28 29 28 27 26 26 27 26 26 26 24 23 21 17 14
15 14 15 17 17 18 17 17 20 23 26 29 30 32 34 34 33 35 36 35 35 35 35 36 35 33 35 35 34 35 35 33 31 31 31 29 28 29 28 28 29 31 32 30 28 29 31 29 28 29 28 27 27 27 27 26 26 26 25 25 25 22 19
13 13 13 14 15 15 15 15 17 18 20 25 27 28 31 33 33 34 34 34 35 36 36 36 33 32 35 36 35 33 33 32 30 29 29 29 28 28 28 26 25 29 32 30 26 27 30 30 29 28 28 28 27 27 27 27 26 25 25 25 25 24 23
8 9 9 12 13 13 14 15 15 15 17 22 25 27 30 31 31 33 34 35 35 35 35 35 32 32 34 35 33 31 31 31 30 29 29 30 28 28 28 26 24 27 30 29 26 25 27 29 29 29 28 28 28 28 28 28 27 26 26 25 25 25 24
6 6 8 12 13 13 14 14 14 15 16 21 26 29 30 30 31 33 33 34 35 34 34 34 32 32 33 33 32 30 31 31 30 29 30 31 29 27 28 26 24 26 28 28 27 25 25 27 29 29 29 29 28 28 29 28 28 28 27 26 25 25 25
7 8 9 10 10 11 12 12 13 15 16 21 27 29 29 30 32 32 31 33 34 33 33 33 32 32 33 33 32 30 31 31 31 31 31 31 30 28 27 27 26 26 27 28 27 25 25 25 27 29 30 30 29 29 29 29 29 29 29 28 26 26 26
6 9 11 11 11 12 13 13 14 15 16 20 26 28 28 30 32 31 31 33 33 32 32 31 32 34 34 33 31 30 31 32 32 32 32 32 34 32 28 27 28 27 27 27 27 27 26 25 25 27 29 30 30 30 29 30 30 30 30 30 29 28 27
8 8 9 12 13 13 14 15 15 15 16 19 24 27 27 28 29 28 29 31 32 32 32 31 34 37 34 32 31 31 34 35 33 33 34 35 36 35 31 28 28 27 27 28 29 28 27 25 24 25 27 28 29 29 28 29 30 31 31 30 30 29 26
11 12 11 11 13 15 15 17 16 16 16 17 21 26 27 27 27 30 31 32 32 32 32 33 38 38 33 32 34 34 38 40 37 35 35 35 36 36 33 29 28 28 28 30 30 29 27 25 24 24 25 26 27 27 27 28 31 32 32 31 30 28 25
12 14 14 13 13 14 15 16 16 15 16 17 21 26 27 26 28 31 32 32 33 33 32 34 37 36 34 34 34 36 40 42 38 35 35 36 35 36 36 33 29 29 29 30 30 29 27 26 26 26 25 24 24 25 26 29 33 34 33 33 32 29 25
12 13 15 16 15 13 15 16 16 17 18 20 25 27 28 27 27 30 32 32 33 33 31 33 35 35 34 32 31 35 40 38 35 34 34 36 36 36 37 35 31 29 29 30 30 29 28 27 28 28 26 24 24 24 25 29 33 34 34 33 33 31 28
13 14 15 16 16 14 16 16 17 19 20 23 28 31 32 32 31 32 32 31 31 32 32 33 34 33 31 29 30 36 38 34 32 33 33 36 36 36 36 34 31 30 29 29 29 28 28 28 28 27 27 26 25 25 26 27 31 34 35 34 33 32 30
14 14 15 16 16 16 15 14 15 17 21 25 30 32 32 32 30 28 27 27 30 31 31 31 30 30 29 29 32 36 36 34 34 34 34 35 36 34 33 32 32 30 28 27 27 27 28 29 27 27 28 28 28 27 26 27 30 33 34 34 33 32 31
13 13 14 14 15 15 14 14 14 15 19 24 27 27 26 27 27 25 26 29 31 31 30 29 28 29 29 29 31 34 34 34 34 32 32 33 34 33 32 31 31 30 28 26 26 27 30 30 28 27 29 30 29 27 26 28 31 33 33 33 33 31 30
13 13 13 13 13 12 11 13 16 17 19 23 26 26 26 27 28 27 28 30 30 30 30 28 26 27 29 29 30 32 33 34 33 31 30 31 31 31 30 29 30 31 29 27 25 25 27 28 28 27 28 29 28 27 27 28 31 33 34 33 32 31 30
13 13 12 12 12 10 10 11 14 16 18 21 23 25 26 27 27 27 27 28 28 28 28 27 26 27 29 30 30 31 32 32 32 30 30 30 29 29 29 29 30 30 29 27 25 23 24 25 26 26 27 27 27 27 28 28 30 33 34 33 32 31 31
12 11 10 9 8 9 12 13 16 19 20 22 22 23 25 26 27 26 26 26 27 27 27 28 28 29 30 30 30 30 31 32 32 31 30 29 29 29 29 28 29 29 28 27 26 25 24 24 25 25 26 27 27 28 28 28 29 33 34 34 33 32 32
11 11 10 7 4 8 13 16 18 20 22 22 22 23 25 27 27 26 25 26 27 28 28 29 30 30 31 31 30 31 32 33 32 32 31 29 29 29 29 29 28 28 27 27 26 25 24 23 23 23 24 26 27 29 29 28 27 30 33 34 34 33 33
12 12 11 8 4 4 13 18 19 21 23 23 24 26 27 28 27 26 25 26 27 28 29 30 30 30 30 31 31 32 32 32 32 33 31 29 30 30 30 29 28 26 25 25 24 24 23 22 22 22 23 23 24 27 28 27 27 29 32 34 34 33 34
13 14 13 11 9 3 10 15 18 21 23 26 28 28 28 28 26 24 24 24 25 28 30 29 29 30 31 31 30 30 31 30 31 33 31 30 31 30 27 26 25 24 24 24 23 23 23 22 22 21 21 22 23 24 25 26 27 29 31 33 33 33 33
14 16 16 15 14 9 4 9 14 17 20 27 30 28 29 30 26 23 23 24 26 29 28 28 32 34 33 31 28 27 28 28 29 31 29 27 27 26 25 24 24 23 23 23 23 22 22 22 21 21 20 20 21 22 23 25 28 29 30 32 32 32 33
15 15 16 16 16 12 7 6 7 10 15 22 25 26 30 31 25 22 24 25 28 29 27 30 35 34 30 29 27 26 26 26 27 29 27 25 26 27 26 24 23 22 22 22 22 22 22 23 23 23 22 21 22 23 23 25 28 31 31 32 32 33 33
15 15 16 17 17 14 10 7 7 7 8 12 16 22 28 29 24 21 22 23 26 29 29 31 34 31 29 29 27 26 26 25 27 28 27 25 27 28 26 24 23 22 23 24 23 22 23 24 23 23 24 23 23 24 24 24 26 29 32 33 33 33 34
15 16 16 18 20 18 13 10 10 10 10 8 9 15 20 22 21 20 18 21 26 30 31 32 32 31 30 28 26 26 26 24 25 27 27 26 27 27 26 24 23 22 23 24 24 23 23 24 23 23 23 23 23 23 23 22 22 24 28 31 33 33 33
15 16 18 19 21 21 17 14 14 13 13 12 9 9 12 15 18 18 17 21 27 30 31 31 31 29 26 24 24 25 25 23 24 25 26 25 25 26 26 25 23 22 23 23 23 23 24 24 23 23 23 23 23 23 21 19 20 21 23 27 30 31 31
14 16 18 19 21 21 18 16 16 14 14 14 12 10 11 12 14 15 16 19 24 27 30 30 30 30 28 24 22 22 23 23 23 22 22 23 23 23 24 24 23 22 21 22 23 23 24 24 24 23 22 22 22 23 20 18 18 19 20 23 27 30 31
14 15 18 21 22 21 19 17 16 15 14 13 12 12 13 13 12 11 12 13 16 22 27 29 29 29 29 27 24 23 23 23 22 21 20 20 21 21 21 22 22 22 22 23 24 24 24 24 24 23 23 22 21 21 19 18 18 19 19 22 25 27 29
16 17 19 22 21 20 19 17 16 15 14 12 11 12 14 14 13 12 12 11 11 15 21 26 27 26 24 24 23 23 24 24 23 22 18 17 20 22 22 22 23 22 22 22 24 26 24 22 22 22 21 21 20 20 18 16 18 22 24 26 26 26 27
17 19 20 22 22 21 19 17 16 15 13 12 12 12 13 13 13 13 13 12 12 12 15 19 21 20 19 18 17 18 21 20 20 18 16 17 21 23 22 21 21 22 21 20 23 27 27 25 24 23 22 21 21 22 22 20 20 24 26 26 25 25 26
17 18 20 21 21 20 19 18 17 15 13 11 11 12 12 12 12 11 11 11 12 13 14 14 14 12 13 12 12 14 16 15 14 15 15 17 21 23 21 18 17 19 20 20 21 24 26 27 27 26 25 23 22 23 26 26 25 25 25 23 22 22 23
17 18 20 21 20 18 19 19 17 15 13 11 10 11 11 12 13 12 10 8 8 10 12 12 11 10 10 9 11 13 12 10 11 12 13 15 18 19 18 16 13 12 14 16 18 20 22 25 26 26 27 26 24 23 25 25 25 26 25 23 21 19 20
Wind_Direction
199 198 197 195 193 196 198 192 189 192 192 189 190 191 192 192 191 189 189 190 192 194 195 197 199 200 201 205 208 210 210 209 208 209 210 212 213 214 217 218 219 222 224 226 231 234 236 238 238 238 240 243 247 247 248 249 248 248 253 256 252 250 251
198 199 197 194 195 197 197 191 188 191 192 192 191 191 192 191 189 188 188 189 192 194 194 196 198 199 201 204 206 208 209 208 209 210 209 212 216 218 220 221 221 224 227 229 232 235 237 239 240 240 240 242 245 247 248 250 249 247 249 253 250 246 246
198 199 197 196 197 196 193 188 188 192 193 193 192 191 191 190 188 188 189 190 192 194 195 197 199 200 202 203 204 207 209 208 208 209 209 212 217 218 219 222 224 225 228 230 232 235 236 237 239 240 240 241 244 247 249 250 250 248 247 250 249 245 247
200 199 196 198 197 193 189 187 189 192 194 195 194 192 190 188 186 188 190 191 192 193 194 196 198 199 201 202 203 204 207 208 208 209 210 212 215 214 214 220 223 223 227 231 232 233 234 235 238 240 240 241 242 245 248 249 251 250 247 247 246 243 245
200 198 196 198 196 191 189 189 190 192 195 196 194 192 190 188 188 190 191 192 194 195 195 196 197 198 201 203 202 203 206 208 208 208 209 208 209 210 214 218 220 221 225 229 230 231 233 234 236 238 240 241 242 244 246 249 250 250 248 245 241 236 238
199 196 197 198 196 193 191 192 193 192 194 194 192 190 188 188 190 192 192 192 194 195 195 195 196 197 200 202 201 201 204 206 209 209 208 207 208 212 216 218 219 220 223 226 229 231 232 234 235 238 240 240 240 241 243 246 248 248 246 241 236 232 234
196 194 199 198 195 196 194 193 195 194 194 193 190 188 187 189 191 191 192 192 193 193 192 194 195 197 200 200 198 201 204 205 208 210 209 208 210 213 215 217 219 220 220 224 228 230 231 233 236 238 240 240 239 240 242 245 246 246 244 240 237 234 233
196 193 198 198 196 197 194 192 193 192 189 188 188 187 188 190 190 189 192 192 192 192 192 194 195 195 198 198 198 202 204 205 207 209 208 206 209 212 213 215 219 220 220 223 228 231 232 234 236 239 241 240 240 242 243 245 245 244 244 243 242 238 234
200 196 198 199 198 197 195 191 188 185 181 182 187 187 187 189 189 190 191 190 190 192 194 195 194 194 196 198 200 202 203 203 204 205 204 204 207 210 211 213 216 219 222 224 225 229 232 233 235 238 241 241 241 243 244 245 245 244 244 246 247 244 240
203 199 197 198 197 195 193 185 177 176 178 180 184 185 186 189 190 188 188 189 191 192 193 193 192 192 195 198 200 200 200 201 201 201 202 204 207 209 210 210 210 216 222 222 220 225 231 233 234 237 240 240 240 242 243 244 245 244 245 247 248 248 246
215 206 194 193 193 188 184 180 175 178 182 183 185 185 186 187 187 186 187 189 190 192 191 190 190 190 192 196 197 197 198 200 199 199 201 203 206 208 208 207 206 212 219 219 217 221 227 231 233 234 237 238 239 241 243 244 244 244 246 247 249 251 250
218 216 204 197 191 183 183 184 182 184 185 185 187 188 186 185 186 187 187 188 190 190 188 188 188 188 189 192 194 195 197 198 198 199 202 203 205 206 206 205 205 209 215 216 216 217 221 228 230 232 235 236 237 240 242 244 244 245 247 247 248 252 252
200 201 207 204 192 184 187 188 186 186 186 187 188 188 186 186 188 187 184 185 188 188 186 186 185 184 186 190 192 194 195 196 197 199 201 202 204 204 204 205 206 208 212 214 214 215 218 221 226 230 235 237 237 239 241 243 244 245 247 247 247 250 251
225 203 198 197 191 187 189 191 191 189 186 187 188 186 184 185 188 186 183 183 185 185 185 182 181 184 186 188 190 193 194 195 197 199 201 203 207 207 204 205 207 208 210 212 213 215 218 218 220 227 232 235 236 237 239 241 243 244 245 246 247 247 248
277 245 212 196 190 191 194 194 192 189 185 185 185 183 181 183 184 181 180 182 184 186 184 180 182 187 187 186 191 194 195 196 198 200 203 205 208 209 205 205 207 208 210 213 215 216 218 218 217 220 227 231 233 234 234 236 240 242 242 244 245 245 244
271 263 246 215 196 194 198 197 192 187 183 183 184 183 181 181 180 179 181 182 182 184 183 182 185 187 186 189 194 196 199 201 201 201 203 205 208 209 208 207 208 209 211 214 217 218 217 217 215 217 222 226 228 230 231 234 239 241 242 242 243 243 241
264 257 255 241 217 202 199 198 191 183 181 184 185 183 182 180 179 181 184 184 183 182 181 183 185 186 188 192 194 196 201 203 202 202 204 205 207 209 210 210 209 210 212 214 217 218 216 216 216 218 221 222 224 226 228 234 240 243 243 244 244 241 238
270 259 255 249 237 218 205 199 188 180 183 188 186 185 184 179 176 180 184 185 183 182 181 183 185 187 191 192 191 195 200 201 200 202 204 205 207 209 211 211 209 210 212 213 216 216 215 216 218 221 222 221 222 224 226 234 241 244 244 245 245 243 239
281 273 263 253 245 231 213 202 191 185 185 187 186 185 184 181 179 182 184 180 176 177 180 183 185 187 188 188 190 194 197 196 196 199 202 204 207 208 210 209 209 210 211 213 215 214 215 218 219 220 221 220 222 224 225 233 241 245 246 245 245 245 241
290 285 276 259 249 236 214 197 191 188 185 185 184 183 182 181 179 178 175 170 170 174 177 180 183 185 184 186 191 194 195 196 198 199 201 204 205 206 207 208 209 211 212 213 213 212 215 218 218 219 220 221 223 225 227 231 238 244 246 246 245 244 242
297 294 285 265 247 233 208 189 185 184 183 184 181 176 174 176 174 170 168 170 173 176 178 178 180 182 183 186 190 192 194 196 198 199 200 202 203 204 205 207 208 210 210 211 211 213 216 218 218 219 222 224 225 226 229 233 237 242 245 245 244 242 242
299 298 291 272 246 223 200 189 186 182 180 179 176 173 171 171 172 170 170 172 174 177 179 179 178 180 184 187 190 192 194 195 196 197 198 199 201 203 204 205 208 209 209 210 212 214 217 218 219 220 222 225 225 227 231 234 237 240 242 244 244 240 239
303 302 296 279 250 210 178 174 172 167 165 166 170 173 171 169 168 165 166 171 174 174 176 178 181 184 187 190 191 192 193 194 194 196 197 198 199 202 204 205 208 209 209 209 211 214 215 217 219 220 223 225 224 225 230 234 237 239 241 242 241 237 235
317 318 315 293 246 189 163 159 157 155 156 161 167 169 165 163 162 159 161 169 173 172 175 180 185 187 188 190 191 191 192 194 195 196 197 198 200 202 204 206 208 210 209 210 212 215 217 218 219 220 222 224 224 226 230 234 237 240 241 242 239 236 234
341 343 343 331 257 184 160 152 150 151 153 157 163 163 159 160 161 160 164 171 175 176 180 185 188 189 189 189 190 192 194 195 197 198 199 199 201 203 205 207 209 210 209 210 213 216 218 219 219 219 221 224 225 228 231 234 237 241 243 243 240 236 234
1 1 2 1 343 176 153 145 145 152 158 160 161 161 162 162 161 163 169 174 176 181 186 189 189 188 188 189 190 193 195 196 198 200 200 201 203 205 206 208 208 208 208 209 212 216 218 219 219 220 223 225 226 228 231 232 234 239 243 244 241 237 234
14 17 19 18 16 64 149 152 153 159 162 161 160 161 163 163 162 165 167 169 177 187 190 188 186 185 187 190 191 193 195 197 199 200 201 203 205 205 206 207 207 206 207 209 211 214 217 218 219 222 225 227 227 228 230 232 233 237 241 243 242 239 236
17 25 28 26 26 36 102 149 155 159 160 160 162 163 163 164 165 166 167 173 186 190 187 185 188 190 191 191 191 193 195 197 199 201 202 204 204 203 204 206 207 206 207 209 210 212 215 217 219 223 226 228 230 230 230 233 236 238 239 242 243 240 237
13 23 30 31 30 33 48 89 124 142 154 162 167 166 166 167 166 168 174 184 191 188 185 188 191 190 190 190 191 193 195 197 199 200 201 202 202 204 206 207 206 205 205 206 207 210 217 220 221 226 231 233 235 235 232 232 237 240 240 241 242 242 240
10 15 22 28 32 40 54 71 80 92 122 152 163 166 168 169 168 170 179 187 189 186 186 189 189 188 189 190 192 194 195 197 199 201 202 203 203 205 207 206 204 204 206 209 210 213 221 225 225 227 231 234 237 237 233 230 234 240 242 242 242 242 242
5 9 13 19 25 34 51 74 84 83 80 93 132 157 167 171 169 170 177 183 185 186 186 187 188 189 190 191 192 194 195 197 200 201 203 204 203 204 205 205 203 204 207 210 211 214 221 226 224 224 227 231 235 236 233 228 229 235 240 242 242 242 242
358 4 9 12 15 19 32 58 74 78 73 69 84 124 152 166 168 167 172 179 183 186 187 187 187 188 189 190 192 194 195 197 200 202 203 204 203 204 206 205 204 204 206 207 209 213 219 223 223 224 226 230 234 237 233 227 225 227 233 239 240 240 241
354 360 6 9 12 13 20 40 54 61 65 62 61 81 112 139 152 157 165 174 181 186 188 188 189 190 192 194 193 193 195 197 200 201 202 203 204 206 207 207 206 204 204 204 207 212 218 222 224 225 226 228 233 236 232 227 224 223 224 230 235 237 238
355 358 3 5 7 12 19 30 38 41 47 50 51 65 85 101 116 133 150 164 176 183 184 186 190 193 195 196 196 197 199 200 200 201 201 203 205 208 210 209 208 208 208 207 207 210 215 220 222 224 224 224 226 229 228 227 226 222 221 225 229 231 233
357 359 5 5 4 9 16 22 27 31 35 37 42 58 73 82 92 105 119 133 154 171 179 184 189 192 195 197 198 201 205 205 203 202 201 200 201 205 209 210 209 212 214 213 211 210 211 214 215 216 218 218 219 222 224 224 228 234 238 238 235 233 231
2 1 6 7 5 7 10 12 16 23 28 29 35 49 61 68 77 91 102 114 130 147 164 177 182 185 189 193 195 200 205 206 205 202 201 200 200 202 206 209 211 213 214 215 217 218 217 219 220 220 221 221 223 227 229 230 237 247 251 250 247 243 240
6 5 4 4 5 5 5 5 7 11 15 19 29 41 48 53 61 74 89 105 120 132 143 154 160 163 170 178 185 191 194 196 198 198 199 202 202 200 200 203 209 214 215 217 221 222 223 225 228 229 230 231 232 238 243 244 246 251 254 255 254 250 244
9 7 2 2 4 5 4 2 0 1 3 8 22 36 40 43 48 55 68 91 115 128 137 144 146 143 146 158 172 179 180 178 179 184 189 193 195 195 194 192 192 200 211 217 220 222 224 226 229 232 235 236 238 243 248 251 250 250 252 253 252 249 243